[[{"header":{"parameterUnit":"m.s-1","parameterCategory":1,"la1":30.2991,"la2":30.254,"lo1":-89.0895,"lo2":-89.0444,"dy":0.0017,"dx":0.0017,"nx":28,"ny":28,"refTime":"2023-08-17T09:00:00:Z","depth":0,"parameterNumber":2,"parameterNumberName":"U-component_of_WINDS"},"data":[0,0,0,0,0,0,0,0,0,0,0,0,0,0,0,0,0,0,0,0,0,0,0,0,0,0,0,0,0,0,0,0,0,0,0,0,0,0,0,0,0,0,0,0,0,0,0,0,0,0,0,0,0,0,0,0,0,0,2.7066,2.7067,0,2.715,2.7151,2.7152,2.7129,2.7127,2.7126,2.7124,2.7208,2.7212,2.7216,0,0,0,0,0,0,0,0,0,0,0,0,0,2.688,2.6883,2.7066,2.7067,2.7068,2.715,2.7151,2.7152,2.7129,2.7127,2.7125,2.7123,2.7207,2.7211,2.7216,0,0,0,0,0,0,0,0,0,0,0,0,0,2.6962,2.6885,2.7065,2.7066,2.7067,2.715,2.7151,2.7153,2.713,2.7127,2.7125,2.7122,2.7205,2.7211,2.7217,2.7303,0,0,2.7234,2.7237,0,0,0,0,0,0,0,0,2.6957,2.6969,2.7065,2.7066,2.7067,2.7127,2.7117,2.7203,2.713,2.7106,2.7124,2.7121,2.7183,2.719,2.7212,2.7307,2.7311,2.7235,2.7238,2.7241,2.7242,0,0,0,0,0,0,0,2.6952,2.6965,2.7099,2.7066,2.7068,2.7061,2.707,2.7133,2.7158,2.7108,2.7106,2.7117,2.7183,2.7206,2.7213,2.7312,2.7234,2.724,2.7243,2.7245,2.7479,2.7481,0,0,0,0,0,0,2.6946,2.6961,2.7096,2.7102,2.7005,2.7066,2.7076,2.711,2.7157,2.7162,2.7119,2.7115,2.7198,2.7207,2.7216,2.7318,2.724,2.7246,2.7249,2.7476,2.7479,2.7482,0,0,0,0,0,0,2.6942,2.6958,2.7093,2.7031,2.7047,2.7072,2.711,2.7113,2.7136,2.7165,2.7169,2.7138,2.7196,2.7208,2.7281,2.732,2.7248,2.7254,2.7473,2.7477,2.7481,2.7523,0,0,0,0,0,0,2.6937,2.6957,2.6991,2.7032,2.7051,2.7158,2.7113,2.7117,2.7147,2.7143,2.7184,2.7189,2.7195,2.7273,2.7287,2.7327,2.7258,2.7469,2.7474,2.7479,2.7518,2.7528,2.7537,0,0,0,0,0,2.693,2.7,2.6993,2.7009,2.7094,2.716,2.7171,2.7177,2.715,2.7183,2.7202,2.7188,2.7314,2.728,2.7296,2.7339,2.7467,2.7473,2.7479,2.7514,2.7526,2.7536,0,0,0,0,0,0,2.6962,2.7005,2.6998,2.7083,2.7118,2.7156,2.7198,2.719,2.7233,2.7227,2.7233,2.7242,2.7316,2.7335,2.7296,2.7423,2.7386,2.7396,2.7407,2.7419,2.7428,2.7421,2.7263,0,0,0,0,0,2.698,2.7031,2.7065,2.7137,2.7154,2.7174,2.7202,2.7204,2.724,2.7255,2.7278,2.7313,2.736,2.7391,2.7437,2.7522,2.7528,2.7558,2.7568,2.7575,2.7582,2.7625,2.7638,2.7503,2.7502,2.7502,0,0,2.7015,2.7045,2.7077,2.7144,2.7171,2.7222,2.7186,2.7242,2.7279,2.7263,2.7332,2.7351,2.739,2.7468,2.7504,2.7486,2.7622,2.7583,2.7589,2.7592,2.7633,2.7646,2.7657,2.7507,2.7506,2.7505,0,0,2.7106,2.7135,2.7196,2.7224,2.7266,2.7278,2.7292,2.7331,2.7343,2.7413,2.7401,2.7445,2.7527,2.7554,2.7579,2.7678,2.7665,2.7693,2.774,2.7782,2.7792,2.7802,2.7834,2.7846,2.7701,2.7701,2.7701,0,2.7144,2.7222,2.7229,2.7285,2.7313,2.7302,2.7362,2.7389,2.7443,2.7462,2.7442,2.7543,2.7569,2.7652,2.7676,2.7697,2.7712,2.7687,2.7791,2.78,2.7809,2.7839,2.7852,2.7704,2.7703,2.7703,2.7703,0,2.7265,2.7319,2.7363,2.7416,2.7449,2.7508,2.7522,2.7555,2.7554,2.7567,2.7637,2.7667,2.7717,2.7738,2.7737,2.782,2.7807,2.7789,2.7752,2.7824,2.7853,2.7865,2.7708,2.7707,2.7706,2.7705,0,0,2.7378,2.7433,2.7448,2.7471,2.7515,2.7556,2.7613,2.7662,2.7689,2.7727,2.7772,2.7842,2.7825,2.7853,2.7855,2.7892,2.7964,2.7869,2.787,2.7883,2.8054,2.8065,2.8078,2.7958,2.796,2.7962,2.8049,0,2.7469,2.757,2.7577,2.7667,2.7715,2.7704,2.7753,2.7785,2.7799,2.784,2.7855,2.7903,2.7879,2.7895,2.7931,2.7948,2.7998,2.7942,2.7998,2.8,2.7985,2.8094,2.8107,2.8188,2.8061,2.8063,2.8064,0,2.759,2.763,2.7725,2.7761,2.7781,2.7825,2.7869,2.791,2.7945,2.7952,2.7983,2.798,2.8036,2.7998,2.8074,2.8036,2.8059,2.8071,2.8074,2.8077,2.8034,2.8097,2.8214,2.8225,2.8083,2.8081,2.808,0,2.7658,2.7737,2.7803,2.7823,2.7867,2.7897,2.7917,2.795,2.7978,2.8016,2.8034,2.8079,2.8103,2.8137,2.8145,2.8117,2.8219,2.8184,2.8225,2.8224,2.8245,2.8243,2.8364,2.8265,2.8265,2.8265,2.8264,0,2.7758,2.7815,2.7834,2.7874,2.7937,2.7945,2.8007,2.8024,2.8053,2.8095,2.8089,2.8128,2.8138,2.8179,2.8186,2.8246,2.8257,2.8263,2.8264,2.8262,2.8261,2.8275,2.8269,2.8268,2.8267,2.8266,2.8266,0,2.7844,2.7859,2.793,2.7965,2.7975,2.802,2.805,2.8087,2.8101,2.8154,2.8166,2.8187,2.8234,2.8246,2.8303,2.8308,2.8377,2.8374,2.8365,2.8364,2.8403,2.8398,2.8536,2.8553,2.8446,2.8447,2.8447,0,2.7905,2.7949,2.7989,2.8017,2.8038,2.8083,2.8112,2.812,2.815,2.8192,2.8224,2.8271,2.8308,2.8384,2.8403,2.8446,2.8441,2.8487,2.8448,2.8444,2.8438,2.8434,2.8437,2.8493,2.8494,2.8495,2.8496,0,2.8011,2.8016,2.8058,2.8102,2.8136,2.8171,2.8204,2.8227,2.824,2.8273,2.8322,2.8351,2.8408,2.8454,2.8497,2.8515,2.8507,2.8508,2.852,2.8517,2.8508,2.851,2.8382,2.8505,2.8504,2.8503,2.8503,2.8502,2.8085,2.8122,2.8155,2.8201,2.8227,2.8258,2.8294,2.8312,2.8352,2.84,2.8402,2.8454,2.8486,2.8542,2.8563,2.8603,2.8589,2.8606,2.861,2.8613,2.8615,2.8505,2.8611,2.8611,2.8611,2.861,2.861,0,2.8188,2.8208,2.8251,2.8297,2.8332,2.8323,2.8359,2.8388,2.8434,2.8465,2.8502,2.8556,2.86,2.8622,2.8665,2.8692,2.8689,2.8702,2.8699,2.8703,2.8626,2.8611,2.8704,2.8704,2.8704,2.8704,2.8704,2.8704,2.8245,2.8306,2.8315,2.8388,2.8408,2.8459,2.848,2.8507,2.8531,2.8592,2.8629,2.8643,2.8669,2.8714,2.8753,2.8758,2.8773,2.8788,2.879,2.8718,2.8708,2.8699,2.8684,2.8791,2.8792,2.8863,2.8864,2.8864]},{"header":{"parameterUnit":"m.s-1","parameterCategory":1,"la1":30.2991,"la2":30.254,"lo1":-89.0895,"lo2":-89.0444,"dy":0.0017,"dx":0.0017,"nx":28,"ny":28,"refTime":"2023-08-17T09:00:00:Z","depth":0,"parameterNumber":3,"parameterNumberName":"V-component_of_WINDS"},"data":[0,0,0,0,0,0,0,0,0,0,0,0,0,0,0,0,0,0,0,0,0,0,0,0,0,0,0,0,0,0,0,0,0,0,0,0,0,0,0,0,0,0,0,0,0,0,0,0,0,0,0,0,0,0,0,0,0,0,1.1164,1.1164,0,1.1209,1.1209,1.121,1.1194,1.1193,1.1192,1.1191,1.1239,1.1241,1.1243,0,0,0,0,0,0,0,0,0,0,0,0,0,1.1064,1.1066,1.1164,1.1164,1.1165,1.1209,1.1209,1.121,1.1194,1.1193,1.1192,1.1191,1.1238,1.1241,1.1244,0,0,0,0,0,0,0,0,0,0,0,0,0,1.1108,1.1066,1.1163,1.1162,1.1162,1.1209,1.1209,1.121,1.1195,1.1193,1.1192,1.119,1.1237,1.1241,1.1244,1.1294,0,0,1.1254,1.1255,0,0,0,0,0,0,0,0,1.1106,1.1112,1.1162,1.1162,1.1163,1.1194,1.1192,1.1238,1.1195,1.1182,1.1191,1.1189,1.1225,1.123,1.1241,1.1297,1.1299,1.1254,1.1256,1.1258,1.1259,0,0,0,0,0,0,0,1.1102,1.111,1.1181,1.1162,1.1163,1.1159,1.1164,1.1201,1.1212,1.1183,1.1182,1.1188,1.1225,1.1238,1.1242,1.1299,1.1254,1.1257,1.1259,1.126,1.1397,1.1399,0,0,0,0,0,0,1.1099,1.1107,1.118,1.1183,1.113,1.1162,1.1168,1.1186,1.1211,1.1214,1.1189,1.1187,1.1233,1.1239,1.1244,1.1304,1.1258,1.1261,1.1263,1.1396,1.1398,1.1399,0,0,0,0,0,0,1.1097,1.1106,1.1178,1.1145,1.1154,1.1166,1.1186,1.1187,1.12,1.1216,1.1218,1.12,1.1232,1.1239,1.1282,1.1306,1.1262,1.1265,1.1394,1.1396,1.1399,1.1426,0,0,0,0,0,0,1.1094,1.1105,1.1124,1.1145,1.1156,1.1215,1.1188,1.1189,1.1206,1.1203,1.1227,1.1229,1.1232,1.1277,1.1285,1.131,1.1268,1.1392,1.1395,1.1398,1.1423,1.1429,1.1434,0,0,0,0,0,1.1091,1.1131,1.1125,1.1134,1.118,1.1217,1.1222,1.1224,1.1208,1.1227,1.1237,1.1228,1.1302,1.1281,1.129,1.1316,1.139,1.1394,1.1398,1.142,1.1428,1.1434,0,0,0,0,0,0,1.1113,1.1134,1.1128,1.1176,1.1195,1.1214,1.1239,1.1232,1.1256,1.1253,1.1255,1.126,1.1304,1.1314,1.1291,1.1366,1.1343,1.1349,1.1358,1.1365,1.137,1.1367,1.1271,0,0,0,0,0,1.1124,1.1151,1.1168,1.1209,1.1218,1.1227,1.1243,1.1242,1.1262,1.127,1.1283,1.1302,1.133,1.1348,1.1374,1.1424,1.1428,1.1446,1.1452,1.1456,1.1461,1.1488,1.1495,1.1412,1.1412,1.1411,0,0,1.1146,1.116,1.1178,1.1213,1.1228,1.1256,1.1234,1.1265,1.1286,1.1275,1.1315,1.1325,1.1347,1.1393,1.1414,1.1403,1.1485,1.1461,1.1465,1.1467,1.1492,1.15,1.1507,1.1414,1.1414,1.1413,0,0,1.1201,1.1215,1.125,1.1264,1.1286,1.1291,1.13,1.132,1.1326,1.1366,1.1358,1.1383,1.143,1.1446,1.146,1.1519,1.1512,1.1528,1.1557,1.1583,1.159,1.1595,1.1616,1.1624,1.1533,1.1533,1.1533,0,1.1226,1.1268,1.1269,1.1301,1.1316,1.1306,1.1341,1.1356,1.1385,1.1396,1.1383,1.1442,1.1456,1.1505,1.1519,1.1531,1.1541,1.1525,1.1589,1.1594,1.16,1.162,1.1628,1.1534,1.1534,1.1534,1.1534,0,1.1298,1.1327,1.1353,1.1381,1.1399,1.1433,1.1438,1.1457,1.1454,1.1461,1.1502,1.1518,1.1547,1.1558,1.1557,1.1607,1.16,1.1588,1.1565,1.161,1.1628,1.1636,1.1537,1.1536,1.1536,1.1535,0,0,1.1369,1.1395,1.1405,1.1417,1.1439,1.1462,1.1495,1.1522,1.1538,1.1558,1.1586,1.1625,1.1614,1.163,1.163,1.1653,1.1698,1.1638,1.1638,1.1648,1.1753,1.1762,1.1771,1.1693,1.1694,1.1695,1.1751,0,1.1426,1.1483,1.1483,1.1536,1.1563,1.1553,1.1581,1.1598,1.1605,1.1629,1.1636,1.1664,1.1647,1.1657,1.1679,1.1688,1.1719,1.1684,1.1718,1.172,1.1713,1.1781,1.179,1.1842,1.1759,1.176,1.1761,0,1.1499,1.1521,1.1576,1.1593,1.1605,1.163,1.1655,1.1678,1.1696,1.17,1.1717,1.1713,1.1746,1.1722,1.1768,1.1744,1.1758,1.1764,1.1766,1.177,1.1743,1.1786,1.1859,1.1867,1.1772,1.1771,1.1771,0,1.1545,1.1588,1.1626,1.1637,1.1658,1.1676,1.1686,1.1703,1.1719,1.1741,1.1751,1.1777,1.1791,1.181,1.1813,1.1796,1.1859,1.1835,1.1863,1.1862,1.1877,1.1876,1.1953,1.1886,1.1886,1.1886,1.1885,0,1.1608,1.1642,1.1647,1.167,1.1708,1.1708,1.1745,1.1754,1.1769,1.1794,1.1787,1.181,1.1813,1.1837,1.184,1.1877,1.1884,1.1887,1.1887,1.1888,1.1887,1.1897,1.1893,1.1888,1.1887,1.1887,1.1886,0,1.1666,1.1671,1.1711,1.1728,1.1733,1.176,1.1774,1.1796,1.1802,1.1833,1.1841,1.1849,1.1878,1.1882,1.1916,1.1918,1.1962,1.1958,1.1955,1.1955,1.1981,1.1979,1.2068,1.2079,1.2005,1.2005,1.2006,0,1.1706,1.1731,1.175,1.1766,1.1777,1.1802,1.1818,1.1819,1.1836,1.1859,1.1878,1.1905,1.1927,1.1973,1.1982,1.2007,1.2005,1.2034,1.2008,1.2007,1.2005,1.2003,1.2005,1.2039,1.204,1.204,1.2041,0,1.1776,1.1776,1.1799,1.1823,1.1842,1.1861,1.1879,1.1892,1.1895,1.1915,1.1943,1.196,1.1993,1.202,1.2045,1.2055,1.2049,1.2049,1.2056,1.2057,1.2054,1.2055,1.1968,1.2047,1.2046,1.2046,1.2046,1.2045,1.1825,1.1847,1.1864,1.1889,1.1903,1.1919,1.1941,1.1948,1.1972,1.1998,1.1998,1.2028,1.2046,1.2078,1.209,1.2114,1.2105,1.2116,1.2118,1.2121,1.2123,1.205,1.2119,1.2118,1.2118,1.2118,1.2118,0,1.1895,1.1904,1.1928,1.1952,1.1972,1.1964,1.1983,1.2,1.2027,1.2043,1.2065,1.2097,1.2122,1.2133,1.2159,1.2176,1.2173,1.2183,1.2181,1.2184,1.2131,1.2121,1.2184,1.2184,1.2184,1.2184,1.2184,1.2184,1.1933,1.1969,1.1972,1.2014,1.2024,1.2054,1.2065,1.208,1.2093,1.2129,1.215,1.2157,1.2171,1.2197,1.222,1.2223,1.2232,1.2243,1.2244,1.2194,1.2187,1.2181,1.2172,1.2245,1.2245,1.2295,1.2295,1.2296]}]]